Regional Weather Roundup
Issued by NWS

Home | Current Version | Previous Version | Graphics & Text | Print | Product List | Glossary On
Versions: 1 2 3 4 5 6 7 8 9 10 11 12 13 14 15 16 17 18 19 20 21 22 23 24 25 26 27 28 29 30 31 32 33 34 35 36 37 38 39 40 41 42 43 44 45 46 47 48 49 50
000
ASUS43 KLMK 011910
RWRKY
KENTUCKY REGIONAL WEATHER ROUNDUP
NATIONAL WEATHER SERVICE LOUISVILLE KY
300 PM EDT FRI AUG 01 2014

NOTE "FAIR" INDICATES FEW OR NO CLOUDS BELOW 12,000 FEET
WITH NO SIGNIFICANT WEATHER AND/OR OBSTRUCTIONS TO VISIBILITY.

KYZ001>023-026-027-061>063-070>075-012000-
WESTERN AND SOUTH CENTRAL KENTUCKY

CITY           SKY/WX    TMP DP  RH WIND       PRES   REMARKS
PADUCAH        CLOUDY    84  64  50 MISG      30.05F
HENDERSON      SUNNY    N/A N/A N/A MISG        N/A
OWENSBORO      MOSUNNY   83  60  45 VRB6      30.07F
HOPKINSVILLE   MOSUNNY   87  54  32 E8        30.05F
BOWLING GREEN  MOSUNNY   87  52  29 E8        30.06F
GLASGOW        SUNNY     86  52  30 E3        30.07F
$$

KYZ024-025-028>034-038-045-046-053-012000-
NORTH CENTRAL KENTUCKY

CITY           SKY/WX    TMP DP  RH WIND       PRES   REMARKS
LOUISVILLE/SDF PTSUNNY   85  55  35 CALM      30.07F
LOUISVILLE/LOU PTSUNNY   84  54  35 E6        30.08F
FORT KNOX      SUNNY     83  60  45 VRB3      30.07F
$$

KYZ035>037-039>044-047>052-055>060-089>105-012000-
NORTHEAST KENTUCKY

CITY           SKY/WX    TMP DP  RH WIND       PRES   REMARKS
LEXINGTON      PTSUNNY   83  57  41 VRB7      30.10F
COVINGTON      CLOUDY    81  58  45 N7        30.10F
FRANKFORT      CLOUDY    83  57  41 N7        30.08F
$$

KYZ054-064>069-076>088-106>120-012000-
SOUTHEAST KENTUCKY

CITY           SKY/WX    TMP DP  RH WIND       PRES   REMARKS
JACKSON        PTSUNNY   80  62  54 VRB3      30.10F
LONDON         MOSUNNY   83  61  47 NE5       30.10F
SOMERSET       MOSUNNY   82  59  44 E8        30.09F
MIDDLESBORO    MOSUNNY   83  64  52 E7        30.09F
MONTICELLO     CLEAR     85  63  47 VRB6      30.09F
$$



USA.gov is the U.S. government's official web portal to all federal, state and local government web resources and services.